Time,TemperatureF,DewpointF,PressureIn,WindDirection,WindDirectionDegrees,WindSpeedMPH,WindSpeedGustMPH,Humidity,HourlyPrecipIn,Conditions,Clouds,dailyrainin,SoftwareType,DateUTC
2013-05-04 02:00:00,19.0,15.0,-100.00,SSW,207,6.0,11.0,82,-99.99,,,-99.99,,2013-05-04 08:00:00,
2013-05-04 02:42:00,19.0,15.0,-100.00,SSW,207,6.0,11.0,82,-99.99,,,-99.99,,2013-05-04 08:42:00,
2013-05-04 02:52:00,19.0,15.0,-100.00,SSW,207,6.0,11.0,82,-99.99,,,-99.99,,2013-05-04 08:52:00,
2013-05-04 06:00:00,18.0,13.0,-100.00,ESE,116,1.0,3.0,83,-99.99,,,-99.99,,2013-05-04 12:00:00,
2013-05-04 06:42:00,18.0,13.0,-100.00,ESE,116,1.0,3.0,83,-99.99,,,-99.99,,2013-05-04 12:42:00,
2013-05-04 06:52:00,18.0,13.0,-100.00,ESE,116,1.0,3.0,83,-99.99,,,-99.99,,2013-05-04 12:52:00,
2013-05-04 08:00:00,25.0,16.0,-100.00,North,6,1.0,5.0,66,-99.99,,,-99.99,,2013-05-04 14:00:00,
2013-05-04 08:42:00,25.0,16.0,-100.00,North,6,1.0,5.0,66,-99.99,,,-99.99,,2013-05-04 14:42:00,
2013-05-04 08:52:00,25.0,16.0,-100.00,North,6,1.0,5.0,66,-99.99,,,-99.99,,2013-05-04 14:52:00,
2013-05-04 10:00:00,31.0,16.0,-100.00,ENE,66,3.0,9.0,55,-99.99,,,-99.99,,2013-05-04 16:00:00,
2013-05-04 10:42:00,31.0,16.0,-100.00,ENE,66,3.0,9.0,55,-99.99,,,-99.99,,2013-05-04 16:42:00,
2013-05-04 10:52:00,31.0,16.0,-100.00,ENE,66,3.0,9.0,55,-99.99,,,-99.99,,2013-05-04 16:52:00,
2013-05-04 12:00:00,33.0,14.0,-100.00,ESE,121,6.0,15.0,45,-99.99,,,-99.99,,2013-05-04 18:00:00,
2013-05-04 12:42:00,33.0,14.0,-100.00,ESE,121,6.0,15.0,45,-99.99,,,-99.99,,2013-05-04 18:42:00,
2013-05-04 12:52:00,33.0,14.0,-100.00,ESE,121,6.0,15.0,45,-99.99,,,-99.99,,2013-05-04 18:52:00,
2013-05-04 13:00:00,31.0,14.0,-100.00,East,96,6.0,16.0,49,-99.99,,,-99.99,,2013-05-04 19:00:00,
2013-05-04 13:42:00,31.0,14.0,-100.00,East,96,6.0,16.0,49,-99.99,,,-99.99,,2013-05-04 19:42:00,
2013-05-04 13:52:00,31.0,14.0,-100.00,East,96,6.0,16.0,49,-99.99,,,-99.99,,2013-05-04 19:52:00,
2013-05-04 15:00:00,29.0,25.0,-100.00,NE,35,9.0,17.0,85,-99.99,,,-99.99,,2013-05-04 21:00:00,
2013-05-04 15:43:00,29.0,25.0,-100.00,NE,35,9.0,17.0,85,-99.99,,,-99.99,,2013-05-04 21:43:00,
2013-05-04 15:53:00,29.0,25.0,-100.00,NE,35,9.0,17.0,85,-99.99,,,-99.99,,2013-05-04 21:53:00,
2013-05-04 17:00:00,29.0,24.0,-100.00,NE,42,9.0,18.0,82,-99.99,,,-99.99,,2013-05-04 23:00:00,
2013-05-04 17:42:00,29.0,24.0,-100.00,NE,42,9.0,18.0,82,-99.99,,,-99.99,,2013-05-04 23:42:00,
2013-05-04 17:52:00,29.0,24.0,-100.00,NE,42,9.0,18.0,82,-99.99,,,-99.99,,2013-05-04 23:52:00,
2013-05-04 18:00:00,25.0,24.0,-100.00,NNE,15,5.0,11.0,96,-99.99,,,-99.99,,2013-05-05 00:00:00,
2013-05-04 18:42:00,25.0,24.0,-100.00,NNE,15,5.0,11.0,96,-99.99,,,-99.99,,2013-05-05 00:42:00,
2013-05-04 18:52:00,25.0,24.0,-100.00,NNE,15,5.0,11.0,96,-99.99,,,-99.99,,2013-05-05 00:52:00,
2013-05-04 19:00:00,24.0,24.0,-100.00,NNE,27,6.0,12.0,99,-99.99,,,-99.99,,2013-05-05 01:00:00,
2013-05-04 19:42:00,24.0,24.0,-100.00,NNE,27,6.0,12.0,99,-99.99,,,-99.99,,2013-05-05 01:42:00,
2013-05-04 19:52:00,24.0,24.0,-100.00,NNE,27,6.0,12.0,99,-99.99,,,-99.99,,2013-05-05 01:52:00,
2013-05-04 22:00:00,23.0,22.0,-100.00,SE,130,5.0,15.0,97,-99.99,,,-99.99,,2013-05-05 04:00:00,
2013-05-04 22:43:00,23.0,22.0,-100.00,SE,130,5.0,15.0,97,-99.99,,,-99.99,,2013-05-05 04:43:00,
2013-05-04 22:53:00,23.0,22.0,-100.00,SE,130,5.0,15.0,97,-99.99,,,-99.99,,2013-05-05 04:53:00,
2013-05-04 23:00:00,23.0,21.0,-100.00,South,171,11.0,19.0,93,-99.99,,,-99.99,,2013-05-05 05:00:00,
2013-05-04 23:42:00,23.0,21.0,-100.00,South,171,11.0,19.0,93,-99.99,,,-99.99,,2013-05-05 05:42:00,
2013-05-04 23:52:00,23.0,21.0,-100.00,South,171,11.0,19.0,93,-99.99,,,-99.99,,2013-05-05 05:52:00,